THORAD AGENA D DEB, 5185

Orbit data source: Space-Track

THORAD AGENA D DEB, 5185 is space debris in SSO originally from a launch on Wed, 08 Apr 1970 UTC launched from the Air Force Western Test Range (AFWTR). Debris objects in space refer to the collection of defunct objects orbiting the Earth. Examples of debris include non-operational satellites, rocket bodies, and fragments generated from explosions, collisions, or faulty payload assembly.

Loading next visibility...
Identifier
5185, 1970-025KB
Orbit
SSO
Country
Flag of USUS
Related business
Manufacturer
Unknown
Mission
Spacecraft
Bus & Motor
Unknown
Mass
Unknown
Launch date (UTC)
1970-04-08 (56 years ago)
Launch vehicle
Unknown
Launch site
Air Force Western Test Range (AFWTR)
Object type
Payload
Rocket body
Debris
Shape & HBR
Unknown shape, 0.1 m
Radar Cross Section
Small (<0.1 m²)

Expand to show TLE details & history
Last TLE update: 20 hours ago

TLE from 20 hours ago
0 THORAD AGENA D DEB
1 05185U 70025KB  25292.13364695  .00004032  00000-0  28762-2 0  9996
2 05185  99.6540 348.8706 0066660 155.2695 205.1686 13.96886030768190
Epoch: 2025-10-19T03:12Z
TLE epoch observation values (Epoch: 2025-10-19T03:12:27.096Z)
Latitude
0.00001°
Longitude
-87.09698°
Altitude
951.454 km
Speed
7.354 km/s
True Right ascension
23h 15m 28s
True Declination
0° 00' 00"
Sunlit
Object was in full shadow at epoch
Visualization orbit readout
Latitude
Unknown
Longitude
Unknown
Altitude
Unknown
Speed
Unknown
Apparent Right ascension
Unknown
Apparent Declination
Unknown
Sunlit
N/A
Visualization observer readout
Local Sidereal Time
18:34:02
Azimuth
Unknown
Elevation
Unknown
Doppler factor
Unknown
Orbital elements
Apogee altitude
950.363 km
Perigee altitude
853.306 km
Semi-major axis
7,279.972 km
Eccentricity
0.00667
Inclination
99.654°
RAAN
348.8706°
Arg. of periapsis
155.2695°
True anomaly
204.84617°
Mean anomaly
205.1686°
Eccentric anomaly
205.00714°
Mean motion
3.49421 °/min
Orbital period
103.03 mins
BSTAR
0.0028762
Loading maneuver chart data...
Computing Atmospheric mass density...

Documentation

Showing up to 5 results
|